Weather History for Waukesha, WI

Change the Weather History Date:

Thursday, October 6, 2011

  Actual Average Record
Temperature  
Mean Temperature 60 °F -  
Max Temperature 77 °F 62 °F 88 °F (1963)
Min Temperature 44 °F 43 °F 14 °F (1998)
Degree Days  
Heating Degree Days 4    
Growing Degree Days 10 (Base 50)    
Moisture  
Dew Point 46 °F    
Average Humidity 72    
Maximum Humidity 93    
Minimum Humidity 34    
Precipitation  
Precipitation 0.00 in - - ()
Sea Level Pressure  
Sea Level Pressure 30.24 in    
Wind  
Wind Speed 2 mph (SE)    
Max Wind Speed 12 mph    
Max Gust Speed -    
Visibility 10 miles    
Events      
Averages and records for this station are not official NWS values.
T = Trace of Precipitation, MM = Missing Value Source: NWS Daily Summary

Daily Weather History Graph

Daily Weather History Graph

Search for Another Location

Airport:

Trip Planner

Search our weather history database for the weather conditions in past years. The results will help you decide how hot, cold, wet, or windy it might be!

Date:

Astronomy

Oct. 06, 2011 Rise Set
Actual Time 6:55 AM CDT 6:25 PM CDT
Civil Twilight 6:27 AM CDT 6:54 PM CDT
Nautical Twilight 5:54 AM CDT 7:27 PM CDT
Astronomical Twilight 5:21 AM CDT 8:00 PM CDT
Moon 3:45 PM CDT (10/6) 1:36 AM CDT (10/6)
Length of Visible Light 12h 26m
Length of Day
11h 30m
Waxing Gibbous, 75% of the Moon is Illuminated
Oct 6
Waxing Gibbous
Oct 11
Full
Oct 19
Last Quarter
Oct 26
New
Nov 2
First Quarter

Hourly Weather History & Observations

Time (CDT) Temp. Dew Point Humidity Pressure Visibility Wind Dir Wind Speed Gust Speed Precip Events Conditions
12:15 AM 48.2 °F 42.8 °F 82% 30.23 in 10.0 mi Calm Calm - N/A   Clear
12:35 AM 46.4 °F 42.8 °F 87% 30.23 in 10.0 mi Calm Calm - N/A   Clear
12:55 AM 46.4 °F 42.8 °F 87% 30.23 in 10.0 mi Calm Calm - N/A   Clear
1:15 AM 48.2 °F 42.8 °F 82% 30.23 in 10.0 mi Calm Calm - N/A   Clear
1:35 AM 46.4 °F 42.8 °F 87% 30.23 in 10.0 mi Calm Calm - N/A   Clear
1:55 AM 46.4 °F 41.0 °F 81% 30.23 in 10.0 mi Calm Calm - N/A   Clear
2:15 AM 44.6 °F 42.8 °F 93% 30.23 in 10.0 mi Calm Calm - N/A   Clear
2:35 AM 46.4 °F 42.8 °F 87% 30.23 in 10.0 mi Calm Calm - N/A   Clear
2:55 AM 46.4 °F 44.6 °F 93% 30.23 in 10.0 mi Calm Calm - N/A   Clear
3:15 AM 44.6 °F 42.8 °F 93% 30.23 in 10.0 mi Calm Calm - N/A   Clear
3:35 AM 46.4 °F 42.8 °F 87% 30.23 in 10.0 mi Calm Calm - N/A   Clear
4:15 AM 44.6 °F 42.8 °F 93% 30.23 in 10.0 mi Calm Calm - N/A   Clear
4:35 AM 44.6 °F 42.8 °F 93% 30.23 in 10.0 mi Calm Calm - N/A   Clear
4:55 AM 44.6 °F 42.8 °F 93% 30.23 in 10.0 mi Calm Calm - N/A   Clear
5:15 AM 48.2 °F 42.8 °F 82% 30.24 in 10.0 mi Calm Calm - N/A   Clear
5:35 AM 46.4 °F 42.8 °F 87% 30.24 in 10.0 mi Calm Calm - N/A   Clear
5:45 AM 46.4 °F 42.8 °F 87% 30.24 in 10.0 mi Calm Calm - N/A   Clear
6:45 AM 46.4 °F 42.8 °F 87% 30.25 in 10.0 mi Calm Calm - N/A   Clear
7:45 AM 46.4 °F 44.6 °F 93% 30.27 in 10.0 mi Calm Calm - N/A   Clear
8:45 AM 55.4 °F 48.2 °F 77% 30.27 in 7.0 mi Calm Calm - N/A   Clear
9:45 AM 64.4 °F 51.8 °F 64% 30.28 in 10.0 mi Calm Calm - N/A   Clear
10:45 AM 71.6 °F 48.2 °F 43% 30.27 in 10.0 mi Calm Calm - N/A   Clear
11:45 AM 73.4 °F 48.2 °F 41% 30.26 in 10.0 mi South 5.8 mph - N/A   Clear
12:45 PM 75.2 °F 48.2 °F 38% 30.25 in 10.0 mi SSE 11.5 mph - N/A   Clear
1:45 PM 75.2 °F 46.4 °F 36% 30.23 in 10.0 mi SE 9.2 mph - N/A   Clear
2:45 PM 77.0 °F 46.4 °F 34% 30.23 in 10.0 mi SE 9.2 mph - N/A   Clear
3:45 PM 77.0 °F 46.4 °F 34% 30.22 in 10.0 mi SSE 9.2 mph - N/A   Clear
4:45 PM 73.4 °F 48.2 °F 41% 30.22 in 10.0 mi SE 11.5 mph - N/A   Clear
5:45 PM 71.6 °F 48.2 °F 43% 30.21 in 10.0 mi SE 11.5 mph - N/A   Clear
6:45 PM 66.2 °F 48.2 °F 52% 30.22 in 10.0 mi SE 11.5 mph - N/A   Clear
7:45 PM 62.6 °F 50.0 °F 63% 30.22 in 10.0 mi SE 9.2 mph - N/A   Clear
9:15 PM 59.0 °F 50.0 °F 72% 30.24 in 10.0 mi SE 4.6 mph - N/A   Clear
9:35 PM 59.0 °F 50.0 °F 72% 30.24 in 10.0 mi ESE 4.6 mph - N/A   Clear
9:55 PM 59.0 °F 50.0 °F 72% 30.24 in 10.0 mi SE 4.6 mph - N/A   Clear
10:15 PM 59.0 °F 50.0 °F 72% 30.24 in 10.0 mi ESE 5.8 mph - N/A   Clear
10:35 PM 57.2 °F 50.0 °F 77% 30.24 in 10.0 mi ESE 6.9 mph - N/A   Clear
10:55 PM 59.0 °F 50.0 °F 72% 30.23 in 10.0 mi ESE 6.9 mph - N/A   Clear
11:15 PM 60.8 °F 50.0 °F 68% 30.24 in 10.0 mi SE 3.5 mph - N/A   Clear
11:35 PM 57.2 °F 50.0 °F 77% 30.23 in 10.0 mi ESE 4.6 mph - N/A   Clear
11:55 PM 59.0 °F 50.0 °F 72% 30.23 in 10.0 mi SE 3.5 mph - N/A   Clear